CALSPHERE 1 1 00900U 64063C 26163.15791589 .00000554 00000+0 55438-3 0 9992 2 00900 90.2237 71.6525 0024561 313.5131 142.2395 13.76618187 70736 CALSPHERE 2 1 00902U 64063E 26162.99169363 .00000014 00000+0 82071-5 0 9990 2 00902 90.2377 75.6704 0016750 239.7408 131.6017 13.52899970855563 LCS 1 1 01361U 65034C 26163.72875125 .00000030 00000+0 28374-2 0 9992 2 01361 32.1360 187.6136 0012324 106.5425 253.6427 9.89310757209442 TEMPSAT 1 1 01512U 65065E 26163.88402190 .00000048 00000+0 79208-4 0 9992 2 01512 89.9990 212.5936 0067683 260.4520 273.8468 13.33593868959473 CALSPHERE 4A 1 01520U 65065H 26163.88031285 .00000095 00000+0 16206-3 0 9994 2 01520 89.8980 122.5302 0071748 114.7355 300.3020 13.36277618962133 OPS 5712 (P/L 160) 1 02826U 67053A 26163.85163265 .00007275 00000+0 10245-2 0 9997 2 02826 69.9181 48.9229 0000847 272.2433 87.8618 14.77665230 65594 OPS 5712 (P/L 153) 1 02874U 67053H 26163.25390479 .00000036 00000+0 64006-4 0 9997 2 02874 69.9727 125.8805 0008786 219.0586 140.9886 13.96827735 6106 RIGIDSPHERE 2 (LCS 4) 1 05398U 71067E 26163.73792176 .00000614 00000+0 19411-3 0 9995 2 05398 87.6211 340.0457 0057735 246.7713 112.7400 14.37862645873247 COSMOS 2493 (SKRL-756 1) 1 39490U 13078A 26163.82194101 .00003397 00000+0 25610-3 0 9996 2 39490 82.4129 265.4565 0011565 257.1879 102.8053 15.02139115677303 COSMOS 2494 (SKRL-756 2) 1 39491U 13078B 26163.82774764 .00002822 00000+0 19736-3 0 9990 2 39491 82.4125 254.8583 0015573 214.0429 145.9800 15.04843104678152